Photometre #853[NE_1.6_Dp] Portglenone_MO AOT

File : 20210607_853.hum

07/06/2021,05:10:11,TEMP=17.3,BA=5.40,STAT.b=18.0
07/06/2021,05:13:17,TEMP=17.3,BA=5.40,STAT.b=18.0
07/06/2021,05:15:11,TEMP=17.3,BA=5.40,STAT.b=18.0
07/06/2021,05:19:17,TEMP=17.3,BA=5.40,STAT.b=18.0
07/06/2021,05:20:58,TEMP=17.3,BA=5.40,STAT.b=18.0
07/06/2021,05:25:17,TEMP=17.3,BA=5.40,STAT.b=18.0
07/06/2021,05:27:45,TEMP=17.3,BA=5.40,STAT.b=18.0
07/06/2021,05:31:17,TEMP=17.3,BA=5.56,STAT.b=18.0
07/06/2021,05:34:17,TEMP=17.3,BA=5.56,STAT.b=18.0
07/06/2021,05:35:49,TEMP=17.3,BA=5.56,STAT.b=18.0
07/06/2021,05:37:17,TEMP=17.3,BA=5.56,STAT.b=18.0
07/06/2021,05:40:17,TEMP=17.3,BA=5.40,STAT.b=18.0
07/06/2021,05:43:17,TEMP=17.3,BA=5.40,STAT.b=18.0
07/06/2021,05:45:36,TEMP=17.3,BA=5.40,STAT.b=18.0
07/06/2021,05:49:17,TEMP=17.3,BA=5.40,STAT.b=18.0
07/06/2021,05:52:17,TEMP=17.3,BA=5.60,STAT.b=18.0
07/06/2021,05:55:17,TEMP=17.3,BA=5.60,STAT.b=18.0
07/06/2021,05:57:43,TEMP=17.3,BA=5.60,STAT.b=18.0
07/06/2021,06:01:17,TEMP=17.3,BA=5.64,STAT.b=18.0
07/06/2021,06:03:25,TEMP=17.3,BA=5.64,STAT.b=18.0
07/06/2021,06:07:17,TEMP=17.3,BA=5.64,STAT.b=18.0
07/06/2021,06:09:45,TEMP=17.3,BA=5.64,STAT.b=18.0
07/06/2021,06:13:17,TEMP=17.3,BA=5.44,STAT.b=18.0
07/06/2021,06:16:17,TEMP=17.3,BA=5.44,STAT.b=18.0
07/06/2021,06:17:38,TEMP=17.3,BA=5.44,STAT.b=18.0
07/06/2021,06:19:17,TEMP=17.3,BA=5.44,STAT.b=18.0
07/06/2021,06:22:17,TEMP=17.3,BA=5.60,STAT.b=18.0
07/06/2021,06:24:44,TEMP=17.3,BA=5.60,STAT.b=18.0
07/06/2021,06:28:17,TEMP=17.3,BA=5.60,STAT.b=18.0
07/06/2021,06:31:17,TEMP=17.3,BA=5.68,STAT.b=18.0
07/06/2021,06:33:44,TEMP=17.3,BA=5.68,STAT.b=18.0
07/06/2021,06:37:17,TEMP=17.3,BA=5.68,STAT.b=18.0
07/06/2021,06:40:17,TEMP=17.3,BA=5.52,STAT.b=18.0
07/06/2021,06:43:17,TEMP=17.3,BA=5.52,STAT.b=18.0
07/06/2021,06:44:38,TEMP=17.3,BA=5.52,STAT.b=18.0
07/06/2021,06:46:17,TEMP=17.3,BA=5.52,STAT.b=18.0
07/06/2021,06:49:17,TEMP=17.3,BA=5.52,STAT.b=18.0
07/06/2021,06:52:17,TEMP=17.3,BA=5.72,STAT.b=18.0
07/06/2021,06:55:17,TEMP=17.3,BA=5.72,STAT.b=18.0
07/06/2021,06:56:38,TEMP=17.3,BA=5.72,STAT.b=18.0
07/06/2021,06:58:17,TEMP=17.3,BA=5.72,STAT.b=18.0
07/06/2021,07:01:17,TEMP=17.3,BA=5.72,STAT.b=18.0
07/06/2021,07:04:17,TEMP=17.3,BA=5.72,STAT.b=18.0
07/06/2021,07:07:17,TEMP=17.3,BA=5.72,STAT.b=18.0
07/06/2021,07:09:57,TEMP=17.3,BA=5.72,STAT.b=18.0
07/06/2021,07:13:17,TEMP=17.3,BA=5.56,STAT.b=18.0
07/06/2021,07:16:17,TEMP=17.3,BA=5.56,STAT.b=18.0
07/06/2021,07:19:17,TEMP=17.3,BA=5.56,STAT.b=18.0
07/06/2021,07:22:17,TEMP=17.3,BA=5.72,STAT.b=18.0
07/06/2021,07:25:17,TEMP=17.3,BA=5.72,STAT.b=18.0
07/06/2021,07:26:43,TEMP=17.3,BA=5.72,STAT.b=18.0
07/06/2021,07:32:31,TEMP=15.4,BA=5.56,STAT.D,ExtBa=12.30
07/06/2021,07:34:05,TEMP=15.6,BA=5.56,STAT.b=18.0
07/06/2021,07:46:41,TEMP=16.8,BA=5.72,STAT.D,ExtBa=12.40
07/06/2021,07:48:15,TEMP=17.0,BA=5.72,STAT.b=18.0
07/06/2021,07:49:51,TEMP=17.0,BA=5.72,STAT.b=18.0
07/06/2021,08:01:17,TEMP=17.0,BA=5.72,STAT.b=18.0
07/06/2021,08:04:17,TEMP=17.0,BA=5.72,STAT.b=18.0
07/06/2021,08:07:17,TEMP=17.0,BA=5.72,STAT.b=18.0
07/06/2021,08:10:17,TEMP=17.0,BA=5.56,STAT.b=18.0
07/06/2021,08:13:17,TEMP=17.0,BA=5.56,STAT.b=18.0
07/06/2021,08:16:17,TEMP=17.0,BA=5.56,STAT.b=18.0
07/06/2021,08:19:17,TEMP=17.0,BA=5.56,STAT.b=18.0
07/06/2021,08:22:17,TEMP=17.0,BA=5.72,STAT.b=18.0
07/06/2021,08:25:17,TEMP=17.0,BA=5.72,STAT.b=18.0
07/06/2021,08:28:17,TEMP=17.0,BA=5.72,STAT.b=18.0
07/06/2021,08:29:38,TEMP=17.0,BA=5.72,STAT.b=18.0
07/06/2021,08:31:17,TEMP=17.0,BA=5.68,STAT.b=18.0
07/06/2021,08:34:17,TEMP=17.0,BA=5.68,STAT.b=18.0
07/06/2021,08:37:17,TEMP=17.0,BA=5.68,STAT.b=18.0
07/06/2021,08:40:17,TEMP=17.0,BA=5.56,STAT.b=18.0
07/06/2021,08:41:35,TEMP=17.0,BA=5.56,STAT.b=18.0
07/06/2021,08:43:17,TEMP=17.0,BA=5.56,STAT.b=18.0
07/06/2021,08:46:17,TEMP=17.0,BA=5.56,STAT.b=18.0
07/06/2021,08:49:17,TEMP=17.0,BA=5.56,STAT.b=18.0
07/06/2021,08:52:17,TEMP=17.0,BA=5.72,STAT.b=18.0
07/06/2021,08:55:17,TEMP=17.0,BA=5.72,STAT.b=18.0
07/06/2021,08:56:35,TEMP=17.0,BA=5.72,STAT.b=18.0
07/06/2021,08:58:17,TEMP=17.0,BA=5.72,STAT.b=18.0
07/06/2021,09:01:17,TEMP=17.0,BA=5.68,STAT.b=18.0
07/06/2021,09:04:17,TEMP=17.0,BA=5.68,STAT.b=18.0
07/06/2021,09:07:17,TEMP=17.0,BA=5.68,STAT.b=18.0
07/06/2021,09:10:17,TEMP=17.0,BA=5.56,STAT.b=18.0
07/06/2021,09:11:36,TEMP=17.0,BA=5.56,STAT.b=18.0
07/06/2021,09:17:27,TEMP=19.3,BA=5.56,STAT.D,ExtBa=12.50
07/06/2021,09:19:00,TEMP=19.3,BA=5.56,STAT.b=19.0
07/06/2021,09:26:08,TEMP=19.3,BA=5.68,STAT.b=19.0
07/06/2021,09:28:17,TEMP=19.3,BA=5.68,STAT.b=19.0
07/06/2021,09:31:17,TEMP=19.3,BA=5.68,STAT.b=19.0
07/06/2021,09:34:17,TEMP=19.3,BA=5.68,STAT.b=19.0
07/06/2021,09:37:34,TEMP=19.3,BA=5.68,STAT.b=19.0
07/06/2021,09:40:17,TEMP=19.3,BA=5.56,STAT.b=19.0
07/06/2021,09:41:36,TEMP=19.3,BA=5.56,STAT.b=19.0
07/06/2021,09:43:17,TEMP=19.3,BA=5.56,STAT.b=19.0
07/06/2021,09:46:17,TEMP=19.3,BA=5.56,STAT.b=19.0
07/06/2021,09:49:17,TEMP=19.3,BA=5.56,STAT.b=19.0
07/06/2021,09:52:17,TEMP=19.3,BA=5.68,STAT.b=19.0
07/06/2021,09:55:17,TEMP=19.3,BA=5.68,STAT.b=19.0
07/06/2021,09:56:36,TEMP=19.3,BA=5.68,STAT.b=19.0
07/06/2021,10:02:26,TEMP=19.6,BA=5.56,STAT.D,ExtBa=12.70
07/06/2021,10:03:59,TEMP=20.0,BA=5.56,STAT.b=19.0
07/06/2021,10:11:14,TEMP=20.2,BA=5.56,STAT.D,ExtBa=12.70
07/06/2021,10:12:47,TEMP=20.3,BA=5.56,STAT.b=19.0
07/06/2021,10:25:42,TEMP=19.8,BA=5.68,STAT.D,ExtBa=12.70
07/06/2021,10:27:15,TEMP=20.0,BA=5.68,STAT.b=19.0
07/06/2021,10:28:50,TEMP=20.0,BA=5.68,STAT.b=19.0
07/06/2021,10:31:17,TEMP=20.0,BA=5.68,STAT.b=19.0
07/06/2021,10:34:17,TEMP=20.0,BA=5.68,STAT.b=19.0
07/06/2021,10:37:17,TEMP=20.0,BA=5.68,STAT.b=19.0
07/06/2021,10:40:17,TEMP=20.0,BA=5.56,STAT.b=19.0
07/06/2021,10:41:36,TEMP=20.0,BA=5.56,STAT.b=19.0
07/06/2021,10:43:17,TEMP=20.0,BA=5.56,STAT.b=19.0
07/06/2021,10:46:17,TEMP=20.0,BA=5.56,STAT.b=19.0
07/06/2021,10:49:17,TEMP=20.0,BA=5.56,STAT.b=19.0
07/06/2021,10:52:34,TEMP=20.0,BA=5.68,STAT.b=19.0
07/06/2021,10:55:17,TEMP=20.0,BA=5.68,STAT.b=19.0
07/06/2021,10:56:36,TEMP=20.0,BA=5.68,STAT.b=19.0
07/06/2021,10:58:17,TEMP=20.0,BA=5.68,STAT.b=19.0
07/06/2021,11:01:34,TEMP=20.0,BA=5.68,STAT.b=19.0
07/06/2021,11:04:17,TEMP=20.0,BA=5.68,STAT.b=19.0
07/06/2021,11:07:17,TEMP=20.0,BA=5.68,STAT.b=19.0
07/06/2021,11:10:18,TEMP=20.0,BA=5.56,STAT.b=19.0
07/06/2021,11:11:53,TEMP=20.0,BA=5.56,STAT.b=19.0
07/06/2021,11:16:34,TEMP=20.0,BA=5.56,STAT.b=19.0
07/06/2021,11:19:34,TEMP=20.0,BA=5.56,STAT.b=19.0
07/06/2021,11:22:34,TEMP=20.0,BA=5.68,STAT.b=19.0
07/06/2021,11:25:17,TEMP=20.0,BA=5.68,STAT.b=19.0
07/06/2021,11:26:38,TEMP=20.0,BA=5.68,STAT.b=19.0
07/06/2021,11:28:17,TEMP=20.0,BA=5.68,STAT.b=19.0
07/06/2021,11:31:17,TEMP=20.0,BA=5.68,STAT.b=19.0
07/06/2021,11:34:17,TEMP=20.0,BA=5.68,STAT.b=19.0
07/06/2021,11:37:17,TEMP=20.0,BA=5.68,STAT.b=19.0
07/06/2021,11:40:17,TEMP=20.0,BA=5.56,STAT.b=19.0
07/06/2021,11:41:36,TEMP=20.0,BA=5.56,STAT.b=19.0
07/06/2021,11:43:34,TEMP=20.0,BA=5.56,STAT.b=19.0
07/06/2021,11:46:17,TEMP=20.0,BA=5.56,STAT.b=19.0
07/06/2021,11:49:34,TEMP=20.0,BA=5.56,STAT.b=19.0
07/06/2021,11:52:17,TEMP=20.0,BA=5.68,STAT.b=19.0
07/06/2021,11:55:34,TEMP=20.0,BA=5.68,STAT.b=19.0
07/06/2021,11:57:09,TEMP=20.0,BA=5.68,STAT.b=19.0
07/06/2021,12:01:17,TEMP=20.0,BA=5.68,STAT.b=19.0
07/06/2021,12:04:17,TEMP=20.0,BA=5.68,STAT.b=19.0
07/06/2021,12:07:17,TEMP=20.0,BA=5.68,STAT.b=19.0
07/06/2021,12:10:34,TEMP=20.0,BA=5.56,STAT.b=19.0
07/06/2021,12:11:52,TEMP=20.0,BA=5.56,STAT.b=19.0
07/06/2021,12:16:17,TEMP=20.0,BA=5.56,STAT.b=19.0
07/06/2021,12:19:17,TEMP=20.0,BA=5.56,STAT.b=19.0
07/06/2021,12:22:34,TEMP=20.0,BA=5.68,STAT.b=19.0
07/06/2021,12:25:34,TEMP=20.0,BA=5.68,STAT.b=19.0
07/06/2021,12:27:10,TEMP=20.0,BA=5.68,STAT.b=19.0
07/06/2021,12:31:34,TEMP=20.0,BA=5.68,STAT.b=19.0
07/06/2021,12:34:34,TEMP=20.0,BA=5.68,STAT.b=19.0
07/06/2021,12:37:17,TEMP=20.0,BA=5.68,STAT.b=19.0
07/06/2021,12:40:34,TEMP=20.0,BA=5.56,STAT.b=19.0
07/06/2021,12:41:52,TEMP=20.0,BA=5.56,STAT.b=19.0
07/06/2021,12:46:17,TEMP=20.0,BA=5.56,STAT.b=19.0
07/06/2021,12:49:17,TEMP=20.0,BA=5.56,STAT.b=19.0
07/06/2021,12:52:17,TEMP=20.0,BA=5.68,STAT.b=19.0
07/06/2021,12:55:17,TEMP=20.0,BA=5.68,STAT.b=19.0
07/06/2021,12:56:53,TEMP=20.0,BA=5.68,STAT.b=19.0
07/06/2021,13:01:17,TEMP=20.0,BA=5.68,STAT.b=19.0
07/06/2021,13:04:34,TEMP=20.0,BA=5.68,STAT.b=19.0
07/06/2021,13:07:34,TEMP=20.0,BA=5.68,STAT.b=19.0
07/06/2021,13:10:34,TEMP=20.0,BA=5.56,STAT.b=19.0
07/06/2021,13:12:09,TEMP=20.0,BA=5.56,STAT.b=19.0
07/06/2021,13:16:34,TEMP=20.0,BA=5.56,STAT.b=19.0
07/06/2021,13:19:34,TEMP=20.0,BA=5.56,STAT.b=19.0
07/06/2021,13:22:34,TEMP=20.0,BA=5.64,STAT.b=19.0
07/06/2021,13:25:34,TEMP=20.0,BA=5.64,STAT.b=19.0
07/06/2021,13:27:10,TEMP=20.0,BA=5.64,STAT.b=19.0
07/06/2021,13:31:34,TEMP=20.0,BA=5.68,STAT.b=19.0
07/06/2021,13:34:17,TEMP=20.0,BA=5.68,STAT.b=19.0
07/06/2021,13:37:17,TEMP=20.0,BA=5.68,STAT.b=19.0
07/06/2021,13:40:34,TEMP=20.0,BA=5.56,STAT.b=19.0
07/06/2021,13:41:52,TEMP=20.0,BA=5.56,STAT.b=19.0
07/06/2021,13:46:17,TEMP=20.0,BA=5.56,STAT.b=19.0
07/06/2021,13:49:34,TEMP=20.0,BA=5.56,STAT.b=19.0
07/06/2021,13:52:17,TEMP=20.0,BA=5.64,STAT.b=19.0
07/06/2021,13:55:34,TEMP=20.0,BA=5.64,STAT.b=19.0
07/06/2021,13:57:09,TEMP=20.0,BA=5.64,STAT.b=19.0
07/06/2021,14:01:17,TEMP=20.0,BA=5.68,STAT.b=19.0
07/06/2021,14:04:34,TEMP=20.0,BA=5.68,STAT.b=19.0
07/06/2021,14:07:34,TEMP=20.0,BA=5.68,STAT.b=19.0
07/06/2021,14:10:34,TEMP=20.0,BA=5.52,STAT.b=19.0
07/06/2021,14:12:09,TEMP=20.0,BA=5.52,STAT.b=19.0
07/06/2021,14:16:34,TEMP=20.0,BA=5.52,STAT.b=19.0
07/06/2021,14:19:34,TEMP=20.0,BA=5.52,STAT.b=19.0
07/06/2021,14:22:34,TEMP=20.0,BA=5.64,STAT.b=19.0
07/06/2021,14:25:17,TEMP=20.0,BA=5.64,STAT.b=19.0
07/06/2021,14:26:31,TEMP=20.0,BA=5.64,STAT.b=19.0
07/06/2021,14:28:17,TEMP=20.0,BA=5.64,STAT.b=19.0
07/06/2021,14:31:34,TEMP=20.0,BA=5.68,STAT.b=19.0
07/06/2021,14:34:17,TEMP=20.0,BA=5.68,STAT.b=19.0
07/06/2021,14:37:17,TEMP=20.0,BA=5.68,STAT.b=19.0
07/06/2021,14:40:34,TEMP=20.0,BA=5.52,STAT.b=19.0
07/06/2021,14:41:52,TEMP=20.0,BA=5.52,STAT.b=19.0
07/06/2021,14:46:34,TEMP=20.0,BA=5.52,STAT.b=19.0
07/06/2021,14:49:34,TEMP=20.0,BA=5.52,STAT.b=19.0
07/06/2021,14:52:17,TEMP=20.0,BA=5.64,STAT.b=19.0
07/06/2021,14:55:34,TEMP=20.0,BA=5.64,STAT.b=19.0
07/06/2021,14:56:52,TEMP=20.0,BA=5.64,STAT.b=19.0
07/06/2021,15:01:34,TEMP=20.0,BA=5.68,STAT.b=19.0
07/06/2021,15:04:17,TEMP=20.0,BA=5.68,STAT.b=19.0
07/06/2021,15:07:34,TEMP=20.0,BA=5.68,STAT.b=19.0
07/06/2021,15:10:17,TEMP=20.0,BA=5.52,STAT.b=19.0
07/06/2021,15:11:36,TEMP=20.0,BA=5.52,STAT.b=19.0
07/06/2021,15:13:34,TEMP=20.0,BA=5.52,STAT.b=19.0
07/06/2021,15:16:34,TEMP=20.0,BA=5.52,STAT.b=19.0
07/06/2021,15:19:34,TEMP=20.0,BA=5.52,STAT.b=19.0
07/06/2021,15:22:34,TEMP=20.0,BA=5.64,STAT.b=19.0
07/06/2021,15:25:34,TEMP=20.0,BA=5.64,STAT.b=19.0
07/06/2021,15:27:10,TEMP=20.0,BA=5.64,STAT.b=19.0
07/06/2021,15:31:34,TEMP=20.0,BA=5.68,STAT.b=19.0
07/06/2021,15:34:17,TEMP=20.0,BA=5.68,STAT.b=19.0
07/06/2021,15:37:17,TEMP=20.0,BA=5.68,STAT.b=19.0
07/06/2021,15:40:17,TEMP=20.0,BA=5.52,STAT.b=19.0
07/06/2021,15:41:52,TEMP=20.0,BA=5.52,STAT.b=19.0
07/06/2021,15:46:34,TEMP=20.0,BA=5.52,STAT.b=19.0
07/06/2021,15:49:17,TEMP=20.0,BA=5.52,STAT.b=19.0
07/06/2021,15:52:17,TEMP=20.0,BA=5.64,STAT.b=19.0
07/06/2021,15:55:17,TEMP=20.0,BA=5.64,STAT.b=19.0
07/06/2021,15:56:53,TEMP=20.0,BA=5.64,STAT.b=19.0
07/06/2021,16:01:34,TEMP=20.0,BA=5.68,STAT.b=19.0
07/06/2021,16:04:17,TEMP=20.0,BA=5.68,STAT.b=19.0
07/06/2021,16:07:17,TEMP=20.0,BA=5.68,STAT.b=19.0
07/06/2021,16:10:34,TEMP=20.0,BA=5.56,STAT.b=19.0
07/06/2021,16:11:52,TEMP=20.0,BA=5.56,STAT.b=19.0
07/06/2021,16:16:17,TEMP=20.0,BA=5.56,STAT.b=19.0
07/06/2021,16:19:34,TEMP=20.0,BA=5.56,STAT.b=19.0
07/06/2021,16:22:04,TEMP=20.0,BA=5.64,STAT.b=19.0
07/06/2021,16:25:17,TEMP=20.0,BA=5.64,STAT.b=19.0
07/06/2021,16:28:17,TEMP=20.0,BA=5.64,STAT.b=19.0
07/06/2021,16:31:17,TEMP=20.0,BA=5.64,STAT.b=19.0
07/06/2021,16:34:17,TEMP=20.0,BA=5.64,STAT.b=19.0
07/06/2021,16:37:17,TEMP=20.0,BA=5.64,STAT.b=19.0
07/06/2021,16:40:17,TEMP=20.0,BA=5.52,STAT.b=19.0
07/06/2021,16:43:17,TEMP=20.0,BA=5.52,STAT.b=19.0
07/06/2021,16:46:34,TEMP=20.0,BA=5.52,STAT.b=19.0
07/06/2021,16:49:17,TEMP=20.0,BA=5.52,STAT.b=19.0
07/06/2021,16:52:17,TEMP=20.0,BA=5.64,STAT.b=19.0
07/06/2021,16:55:17,TEMP=20.0,BA=5.64,STAT.b=19.0
07/06/2021,16:58:34,TEMP=20.0,BA=5.64,STAT.b=19.0
07/06/2021,17:01:17,TEMP=20.0,BA=5.68,STAT.b=19.0
07/06/2021,17:04:17,TEMP=20.0,BA=5.68,STAT.b=19.0
07/06/2021,17:05:37,TEMP=20.0,BA=5.68,STAT.b=19.0
07/06/2021,17:07:17,TEMP=20.0,BA=5.68,STAT.b=19.0
07/06/2021,17:10:17,TEMP=20.0,BA=5.52,STAT.b=19.0
07/06/2021,17:13:17,TEMP=20.0,BA=5.52,STAT.b=19.0
07/06/2021,17:16:17,TEMP=20.0,BA=5.52,STAT.b=19.0
07/06/2021,17:19:17,TEMP=20.0,BA=5.52,STAT.b=19.0
07/06/2021,17:22:17,TEMP=20.0,BA=5.68,STAT.b=19.0
07/06/2021,17:24:58,TEMP=20.0,BA=5.68,STAT.b=19.0
07/06/2021,17:28:34,TEMP=20.0,BA=5.68,STAT.b=19.0
07/06/2021,17:31:34,TEMP=20.0,BA=5.64,STAT.b=19.0
07/06/2021,17:34:17,TEMP=20.0,BA=5.64,STAT.b=19.0
07/06/2021,17:37:17,TEMP=20.0,BA=5.64,STAT.b=19.0
07/06/2021,17:40:34,TEMP=20.0,BA=5.52,STAT.b=19.0
07/06/2021,17:41:54,TEMP=20.0,BA=5.52,STAT.b=19.0
07/06/2021,17:46:17,TEMP=20.0,BA=5.52,STAT.b=19.0
07/06/2021,17:49:17,TEMP=20.0,BA=5.52,STAT.b=19.0
07/06/2021,17:52:17,TEMP=20.0,BA=5.60,STAT.b=19.0
07/06/2021,17:55:17,TEMP=20.0,BA=5.60,STAT.b=19.0
07/06/2021,17:56:36,TEMP=20.0,BA=5.60,STAT.b=19.0
07/06/2021,17:58:34,TEMP=20.0,BA=5.60,STAT.b=19.0
07/06/2021,18:01:17,TEMP=20.0,BA=5.68,STAT.b=19.0
07/06/2021,18:04:34,TEMP=20.0,BA=5.68,STAT.b=19.0
07/06/2021,18:07:17,TEMP=20.0,BA=5.68,STAT.b=19.0
07/06/2021,18:08:37,TEMP=20.0,BA=5.68,STAT.b=19.0
07/06/2021,18:10:17,TEMP=20.0,BA=5.52,STAT.b=19.0
07/06/2021,18:13:17,TEMP=20.0,BA=5.52,STAT.b=19.0
07/06/2021,18:16:17,TEMP=20.0,BA=5.52,STAT.b=19.0
07/06/2021,18:17:58,TEMP=20.0,BA=5.52,STAT.b=19.0
07/06/2021,18:19:17,TEMP=20.0,BA=5.52,STAT.b=19.0
07/06/2021,18:22:17,TEMP=20.0,BA=5.64,STAT.b=19.0
07/06/2021,18:25:17,TEMP=20.0,BA=5.64,STAT.b=19.0
07/06/2021,18:27:14,TEMP=20.0,BA=5.64,STAT.b=19.0
07/06/2021,18:31:17,TEMP=20.0,BA=5.68,STAT.b=19.0
07/06/2021,18:34:17,TEMP=20.0,BA=5.68,STAT.b=19.0
07/06/2021,18:35:37,TEMP=20.0,BA=5.68,STAT.b=19.0
07/06/2021,18:37:34,TEMP=20.0,BA=5.68,STAT.b=19.0
07/06/2021,18:40:17,TEMP=20.0,BA=5.52,STAT.b=19.0
07/06/2021,18:41:57,TEMP=20.0,BA=5.52,STAT.b=19.0
07/06/2021,18:46:17,TEMP=20.0,BA=5.52,STAT.b=19.0
07/06/2021,18:48:33,TEMP=20.0,BA=5.52,STAT.b=19.0
07/06/2021,18:52:34,TEMP=20.0,BA=5.68,STAT.b=19.0
07/06/2021,18:53:59,TEMP=20.0,BA=5.68,STAT.b=19.0
07/06/2021,18:55:34,TEMP=20.0,BA=5.68,STAT.b=19.0
07/06/2021,18:58:18,TEMP=20.0,BA=5.68,STAT.b=19.0
07/06/2021,19:01:17,TEMP=20.0,BA=5.64,STAT.b=19.0
07/06/2021,19:04:18,TEMP=20.0,BA=5.64,STAT.b=19.0
07/06/2021,19:06:05,TEMP=20.0,BA=5.64,STAT.b=19.0
07/06/2021,19:10:18,TEMP=20.0,BA=5.52,STAT.b=19.0
07/06/2021,19:13:18,TEMP=20.0,BA=5.52,STAT.b=19.0
07/06/2021,19:16:09,TEMP=20.0,BA=5.52,STAT.b=19.0
07/06/2021,19:19:17,TEMP=20.0,BA=5.52,STAT.b=19.0
07/06/2021,19:22:17,TEMP=20.0,BA=5.60,STAT.b=19.0
07/06/2021,19:23:57,TEMP=20.0,BA=5.60,STAT.b=19.0
07/06/2021,19:28:17,TEMP=20.0,BA=5.60,STAT.b=19.0
07/06/2021,19:31:00,TEMP=20.0,BA=5.48,STAT.b=19.0
07/06/2021,19:34:17,TEMP=20.0,BA=5.48,STAT.b=19.0
07/06/2021,19:36:31,TEMP=20.0,BA=5.48,STAT.b=19.0
07/06/2021,19:40:17,TEMP=20.0,BA=5.48,STAT.b=19.0
07/06/2021,19:41:54,TEMP=20.0,BA=5.48,STAT.b=19.0